Location: Elstree
(51.6403°N, 0.2969°W)
Time: 19:14:03
(UTC+00:00)

Cosmos 2278 Rocket - Pass Details

Date: 03 March 2021
Orbit: 841 x 845 km, 71.0° (Epoch: 17 April)

Event Time Altitude Azimuth Distance (km) Brightness Sun altitude
Rises 20:21:50 0° 329° (NNW) 3,417 6.2 -24.7°
Reaches altitude 10° 20:24:18 10° 331° (NNW) 2,477 5.3 -25.0°
Maximum altitude 20:30:00 81° 59° (ENE) 861 2.1 -25.8°
Enters shadow 20:30:29 74° 118° (ESE) 882 2.0 -25.9°
